Other Public Products
Issued by NWS Grand Forks, ND

Home | Current Version | Previous Version | Graphics & Text | Print | Product List | Glossary On
Versions: 1 2 3 4 5 6 7 8 9 10 11 12 13 14 15 16 17 18 19 20 21 22 23 24 25 26 27 28 29 30 31 32 33 34 35 36 37 38 39 40 41 42 43 44 45 46 47 48 49 50
000
FPUS83 KFGF 210610
OPUFGF
PRAIRIE TO PINES WEATHER ROUNDUP
NATIONAL WEATHER SERVICE EASTERN NORTH DAKOTA/GRAND FORKS ND
100 AM CDT TUE APR 21 2015

 **SATELLITE DATA USED TO AUGMENT SKY COVER AT AUTOMATED STATIONS**
 *****  WEATHER ACROSS EASTERN NORTH DAKOTA  *****

CITY           SKY/WX    TMP DP  RH WIND       PRES   REMARKS
GRAND FORKS    CLOUDY    34  27  75 NW18G30   29.63S WCI  23
6HR MIN TEMP:  33; 6HR MAX TEMP:  37; 6HR PCP: TRACE;

GRAND FORKS AF CLOUDY    34  25  71 N16G23    29.63F WCI  23
GRAND CITY NWS   N/A     32 N/A N/A NW26        N/A  WCI  18
BUXTON         NOT AVBL
DEVILS LAKE    CLOUDY    34  23  64 N18G29    29.70S WCI  23
6HR MIN TEMP:  34; 6HR MAX TEMP:  43;

FARGO          CLOUDY    34  28  79 NW22G29   29.64S WCI  22
6HR MIN TEMP:  34; 6HR MAX TEMP:  39; 6HR PCP: TRACE;

WAHPETON ARPT  CLOUDY    34  28  80 NW14      29.65R WCI  24
$$

 *****  WEATHER ACROSS CENTRAL AND WESTERN NORTH DAKOTA  *****

CITY           SKY/WX    TMP DP  RH WIND       PRES   REMARKS
JAMESTOWN      FAIR      31  24  75 NW14      29.71S WCI  21
6HR MIN TEMP:  31; 6HR MAX TEMP:  44;

BISMARCK       MOCLDY    36  15  42 W7        29.78S
6HR MIN TEMP:  32; 6HR MAX TEMP:  51;

MINOT          CLOUDY    36  21  54 N9        29.81R
6HR MIN TEMP:  36; 6HR MAX TEMP:  49;

MINOT AFB      FAIR      36  23  58 N8        29.80R
6HR MIN TEMP:  36; 6HR MAX TEMP:  49;

GARRISON         N/A     39  20  46 NE13G22   29.78R
6HR MIN TEMP:  32; 6HR MAX TEMP:  50;

WILLISTON      CLOUDY    36  18  48 NE8       29.83R
6HR MIN TEMP:  27; 6HR MAX TEMP:  53;

DICKINSON      CLEAR     32  15  49 W6        29.77F
6HR MIN TEMP:  30; 6HR MAX TEMP:  49;

HETTINGER      CLEAR     27  15  61 CALM      29.81F
6HR MIN TEMP:  25; 6HR MAX TEMP:  48;

$$

 *****  OTHER OBSERVATIONS NORTHEAST NORTH DAKOTA  *****

CITY           SKY/WX    TMP DP  RH WIND       PRES   REMARKS
WALHALLA       MOCLDY    32  32 100 N17G26    29.67R WCI  21
LANGDON        CLOUDY    32  27  80 N23G30    29.66S WCI  19
CAVALIER       CLOUDY    34  28  80 N23G35    29.65S WCI  22
GRAFTON        CLOUDY    34  32  93 NW20G26   29.64S WCI  22
CANDO          CLOUDY    32  25  74 N18G24    29.73R WCI  20
FORT TOTTEN      N/A     34  25  70 N9        29.95
ROLLA          MOCLDY    32  25  74 N21G28    29.73S WCI  20
RUGBY          NOT AVBL
 ***** THE ABOVE OBSERVATIONS ARE NON NWS ARE NOT QUALITY
        CONTROLLED AND MAY MIS-REPORT RAIN FOR SNOW...
$$

 *****  OTHER OBSERVATIONS SOUTHEAST NORTH DAKOTA *****

CITY           SKY/WX    TMP DP  RH WIND       PRES   REMARKS
COOPERSTOWN    NOT AVBL
VALLEY CITY    MOCLDY    32  28  86 NW14      29.68S WCI  22
OAKES            N/A     32  27  80 NW10      29.71R WCI  24
GWINNER        PTCLDY    36  28  75 NW16      29.69S
SHEYENNE NWR     N/A     36  25  64 N15       29.95
BUFFALO        NOT AVBL
WYNDMERE       NOT AVBL
 ***** THE ABOVE OBSERVATIONS ARE NON NWS ARE NOT QUALITY
       CONTROLLED AND MAY MIS-REPORT RAIN FOR SNOW...
$$

  *****  WEATHER ACROSS NORTHERN MINNESOTA  *****

CITY           SKY/WX    TMP DP  RH WIND       PRES   REMARKS
FLAG ISLAND    CLOUDY    32  28  86 NW23      29.46R WCI  19
WARROAD        FLURRIES  30  27  86 NW15G24   29.49S WCI  19
ROSEAU         CLOUDY    32  27  80 NW14      29.51S WCI  22
HALLOCK        CLOUDY    34  30  86 NW24G31   29.59S WCI  21
THF RVR FALLS  CLOUDY    30  27  86 NW22      29.56S WCI  17
6HR MIN TEMP:  30; 6HR MAX TEMP:  34;

HALSTAD        NOT AVBL
FOSSTON        LGT SNOW  28  27  93 NW16G23   29.55S WCI  17
BAUDETTE       LGT SNOW  31  28  89 NW18G29   29.43S FOG     WCI  19
6HR MIN TEMP:  31; 6HR MAX TEMP:  33; 6HR PCP: TRACE;

WASKISH        CLOUDY    30  28  93 W16G30    29.45S WCI  19
CROOKSTON      CLOUDY    32  28  86 NW20G28   29.61S WCI  20
$$
  *****  WEATHER ACROSS CENTRAL AND WEST MINNESOTA  *****

CITY           SKY/WX    TMP DP  RH WIND       PRES   REMARKS
BEMIDJI        FLURRIES  30  26  86 NW15G22   29.49S WCI  19
PARK RAPIDS    CLOUDY    36  24  62 NW24G30   29.50S
6HR MIN TEMP:  32; 6HR MAX TEMP:  39; 6HR PCP: TRACE;

WADENA         MIX PCPN  30  27  86 NW17G29   29.53S WCI  18
DETROIT LAKES  CLOUDY    32  28  86 NW25G31   29.58S WCI  19
MOORHEAD       CLOUDY    34  28  80 N17G23    29.64S WCI  23
FERGUS FALLS   CLOUDY    34  28  80 N25G32    29.64R WCI  21
ELBOW LAKE     CLOUDY    34  31  89 NW16      29.61S WCI  23
6HR MIN TEMP:  33; 6HR MAX TEMP:  36;

MORRIS MN      CLOUDY    36  30  80 NW13      29.61S
STAPLES        CLOUDY    30  27  86 NW15G22   29.52S WCI  19
WHEATON        MOCLDY    34  27  75 NW15G22   29.67R WCI  24
$$
  *****  WEATHER ELSEWHERE ACROSS MINNESOTA  *****

CITY           SKY/WX    TMP DP  RH WIND       PRES   REMARKS
DULUTH         LGT SNOW  33  28  81 W20G26    29.34S WCI  21
6HR MIN TEMP:  33; 6HR MAX TEMP:  34; 6HR PCP:  0.01;

INTRNTL FALLS  LGT SNOW  31  29  92 NW15      29.37R FOG     WCI  20
6HR MIN TEMP:  31; 6HR MAX TEMP:  33; 6HR PCP:  0.03;

ELY            LGT SNOW  32  30  93 W8G18     29.29S WCI  25
CLOQUET        FLURRIES  32  28  86 W14G21    29.38S WCI  22
BRAINERD       CLOUDY    33  26  75 NW18G29   29.49S WCI  22
6HR MIN TEMP:  33; 6HR MAX TEMP:  37; 6HR PCP: TRACE;

HIBBING        FLURRIES  31  26  82 NW14G29   29.37S WCI  21
6HR MIN TEMP:  31; 6HR MAX TEMP:  33; 6HR PCP: TRACE;

ALEXANDRIA     CLOUDY    33  27  78 NW23G33   29.58S WCI  21
6HR MIN TEMP:  33; 6HR MAX TEMP:  37; 6HR PCP: TRACE;

SAINT CLOUD    CLOUDY    35  25  66 NW22G32   29.53S WCI  23
6HR MIN TEMP:  35; 6HR MAX TEMP:  39; 6HR PCP: TRACE;

MINNEAPOLIS    CLOUDY    36  30  79 W12       29.54S
6HR MIN TEMP:  36; 6HR MAX TEMP:  42; 6HR PCP:  0.02;

$$

  *****  WEATHER ACROSS SOUTH DAKOTA  *****

CITY           SKY/WX    TMP DP  RH WIND       PRES   REMARKS
SIOUX FALLS    FAIR      33  20  58 W6        29.74S
6HR MIN TEMP:  32; 6HR MAX TEMP:  51;

BROOKINGS      FAIR      30  25  80 W9        29.71S WCI  22
WATERTOWN      FAIR      35  27  72 W10       29.68S
6HR MIN TEMP:  35; 6HR MAX TEMP:  44;

HURON          CLEAR     26  15  63 W8        29.76S WCI  18
6HR MIN TEMP:  26; 6HR MAX TEMP:  52;

SISSETON         N/A     35  28  75 NW16      29.66S
ABERDEEN       CLEAR     33  18  53 W9        29.72F
6HR MIN TEMP:  26; 6HR MAX TEMP:  51;

MITCHELL       CLEAR     34  11  38 W7        29.79R
PIERRE         CLEAR     35  22  58 NW12      29.81S
6HR MIN TEMP:  34; 6HR MAX TEMP:  53;

MOBRIDGE       CLEAR     33  18  53 NW7       29.76S
RAPID CITY     CLEAR     33  21  61 NW7       29.89
6HR MIN TEMP:  31; 6HR MAX TEMP:  52;

$$

  *****  SOME WEATHER IN NEARBY STATES *****

CITY           SKY/WX    TMP DP  RH WIND       PRES   REMARKS
GLASGOW MT     PTCLDY    37  21  52 SE9       29.76S
6HR MIN TEMP:  36; 6HR MAX TEMP:  58;

GREAT FALLS MT CLEAR     44  27  51 SE5       29.84S
6HR MIN TEMP:  44; 6HR MAX TEMP:  65;

CHEYENNE WY    MOCLDY    32  25  75 W6        29.95S
6HR MIN TEMP:  32; 6HR MAX TEMP:  48;

SCOTTSBLUFF NE CLEAR     34  27  75 W6        29.92R
6HR MIN TEMP:  34; 6HR MAX TEMP:  57;

OMAHA NE       FAIR      45  21  38 W10       29.80R
6HR MIN TEMP:  45; 6HR MAX TEMP:  57;

DES MOINES IA  FAIR      39  23  52 W6        29.73S
6HR MIN TEMP:  38; 6HR MAX TEMP:  55;

DAVENPORT IA   FAIR      38  31  76 W13       29.68F
6HR MIN TEMP:  35; 6HR MAX TEMP:  43; 6HR PCP:  0.01;

CHICAGO IL     MOCLDY    41  33  73 W12       29.61S
6HR MIN TEMP:  41; 6HR MAX TEMP:  46;

EAU CLAIRE WI  CLOUDY    36  29  75 W15G23    29.47S
6HR MIN TEMP:  36; 6HR MAX TEMP:  40; 6HR PCP: TRACE;

LA CROSSE WI   CLOUDY    41  31  67 W15       29.52F
6HR MIN TEMP:  41; 6HR MAX TEMP:  44;

$$

  *****  SOME NATIONAL WEATHER *****

CITY           SKY/WX    TMP DP  RH WIND       PRES   REMARKS



USA.gov is the U.S. government's official web portal to all federal, state and local government web resources and services.